KC8HAM Weather Reports


Display with metric or nautical units.
time (UTC)temp
F
wind
direction
speed
MPH
gust
MPH
rain 1hr
in
rain 24hr
in
rain mn
in
humidity
%
barometer
mb
20260506221741 56 336 1.0 4.0 0.00 0.75 0.67 71 1011.5
20260506221502 56 0 2.0 4.0 0.00 0.75 0.67 72 1011.3
20260506220741 56 0 1.0 4.0 0.00 0.75 0.67 70 1011.3
20260506220241 56 251 2.0 4.0 0.00 0.75 0.67 71 1011.3
20260506215742 56 280 2.0 4.0 0.00 0.75 0.67 71 1011.2
20260506215239 56 312 2.0 4.0 0.00 0.75 0.67 73 1011.1
20260506214739 56 310 2.0 4.0 0.00 0.75 0.67 73 1011.2
20260506214459 56 289 1.0 4.0 0.00 0.75 0.67 73 1011.2
20260506213739 56 342 1.0 4.0 0.00 0.75 0.67 72 1011.3
20260506213238 56 273 1.0 4.0 0.00 0.75 0.67 74 1011.2
20260506212236 56 320 2.0 4.0 0.00 0.75 0.67 74 1011.1
20260506211736 56 8 2.0 4.0 0.00 0.75 0.67 74 1011.0
20260506211236 56 350 2.0 6.0 0.00 0.75 0.67 77 1011.0
20260506210736 56 325 2.0 7.0 0.00 0.75 0.67 74 1011.0
20260506210234 56 340 3.0 7.0 0.00 0.75 0.67 75 1010.8
20260506205733 56 263 3.0 7.0 0.00 0.75 0.67 74 1010.9
20260506205230 56 311 3.0 6.0 0.00 0.75 0.67 73 1010.6
20260506204731 57 268 2.0 6.0 0.00 0.75 0.67 77 1010.6
20260506204231 56 348 3.0 6.0 0.00 0.75 0.67 76 1010.5
20260506203731 56 341 3.0 6.0 0.00 0.75 0.67 77 1010.6
20260506203232 56 310 2.0 4.0 0.00 0.75 0.67 78 1010.6
20260506202732 56 316 2.0 6.0 0.00 0.75 0.67 77 1010.5
20260506202231 55 261 1.0 6.0 0.00 0.75 0.67 78 1010.6
20260506201731 55 129 1.0 3.0 0.00 0.75 0.67 79 1010.6
20260506201451 55 312 1.0 4.0 0.00 0.75 0.67 82 1010.6
20260506200731 54 14 2.0 4.0 0.00 0.75 0.67 81 1010.6
20260506200231 54 3 3.0 10.0 0.00 0.75 0.67 81 1010.6
20260506195731 55 269 3.0 10.0 0.00 0.75 0.67 82 1010.7
20260506195229 55 330 3.0 7.0 0.00 0.75 0.67 82 1010.6
20260506194729 55 347 3.0 7.0 0.00 0.75 0.67 82 1010.6
20260506194229 55 331 3.0 5.0 0.00 0.75 0.67 83 1010.6
20260506193729 54 290 3.0 6.0 0.00 0.75 0.67 83 1010.6
20260506193229 54 0 3.0 6.0 0.00 0.75 0.67 84 1010.5
20260506192729 54 308 3.0 6.0 0.00 0.75 0.67 84 1010.5
20260506192229 54 345 2.0 5.0 0.00 0.75 0.67 85 1010.6
20260506191730 54 355 2.0 6.0 0.00 0.75 0.67 85 1010.7
20260506191230 54 336 2.0 6.0 0.00 0.75 0.67 85 1010.7
20260506190727 54 335 2.0 7.0 0.00 0.75 0.67 84 1010.7
20260506185727 54 343 3.0 9.0 0.00 0.75 0.67 84 1010.9
20260506185446 55 320 3.0 7.0 0.00 0.75 0.67 84 1010.8
20260506184724 54 293 4.0 7.0 0.00 0.75 0.67 84 1010.7
20260506184224 54 258 4.0 6.0 0.00 0.75 0.67 84 1010.7
20260506183725 54 280 3.0 5.0 0.00 0.75 0.67 83 1010.7
20260506183225 54 219 2.0 5.0 0.00 0.75 0.67 84 1010.6
20260506182450 53 349 3.0 7.0 0.00 0.75 0.67 86 1010.6
20260506181721 53 228 3.0 7.0 0.00 0.75 0.67 88 1010.8
20260506181449 53 290 3.0 8.0 0.00 0.75 0.67 88 1010.8
20260506180718 53 288 3.0 8.0 0.00 0.75 0.67 89 1010.8
20260506180219 53 282 3.0 6.0 0.00 0.75 0.67 88 1010.8
20260506175940 53 262 3.0 5.0 0.00 0.75 0.67 88 1010.8
20260506175219 53 330 2.0 6.0 0.00 0.75 0.67 89 1010.8
20260506174719 53 314 2.0 6.0 0.00 0.75 0.67 89 1010.7
20260506174219 53 323 3.0 7.0 0.01 0.75 0.67 90 1010.8
20260506173719 53 327 3.0 7.0 0.01 0.75 0.67 88 1010.6
20260506173220 53 163 2.0 5.0 0.01 0.75 0.67 89 1010.5
20260506172719 53 0 3.0 6.0 0.01 0.75 0.67 89 1010.4
20260506172219 53 269 3.0 6.0 0.01 0.75 0.67 88 1010.5
20260506171717 53 353 3.0 6.0 0.01 0.75 0.67 89 1010.6
20260506171217 54 263 3.0 6.0 0.01 0.75 0.67 88 1010.4
20260506170717 53 349 3.0 8.0 0.01 0.75 0.67 89 1010.5
20260506170217 52 228 3.0 8.0 0.01 0.75 0.67 92 1010.5
20260506165717 52 284 3.0 8.0 0.01 0.75 0.67 93 1010.5
20260506165439 52 336 3.0 8.0 0.01 0.75 0.67 91 1010.6
20260506164717 52 282 3.0 6.0 0.01 0.75 0.67 93 1010.6
20260506164217 51 322 3.0 8.0 0.00 0.74 0.66 93 1010.6
20260506163717 51 310 3.0 8.0 0.00 0.74 0.66 96 1010.7
20260506163218 50 305 3.0 7.0 0.00 0.74 0.66 96 1010.7
20260506162715 50 315 3.0 8.0 0.00 0.74 0.66 96 1010.6
20260506162214 50 293 3.0 8.0 0.00 0.74 0.66 97 1010.5
20260506161936 50 300 4.0 8.0 0.00 0.74 0.66 97 1010.6
20260506161215 49 289 4.0 8.0 0.00 0.74 0.66 97 1010.5
20260506160715 49 293 4.0 8.0 0.00 0.74 0.66 98 1010.4
20260506160215 49 311 4.0 8.0 0.00 0.74 0.66 98 1010.3
20260506155715 49 323 4.0 7.0 0.00 0.74 0.66 99 1010.4
20260506155216 50 314 4.0 7.0 0.00 0.74 0.66 98 1010.2
20260506154716 50 306 3.0 7.0 0.00 0.74 0.66 98 1010.0
20260506154216 50 307 4.0 8.0 0.00 0.75 0.66 98 1009.8
20260506153715 50 356 3.0 8.0 0.00 0.75 0.66 98 1009.7
20260506153442 50 324 3.0 6.0 0.00 0.75 0.66 98 1009.4
20260506152715 50 352 2.0 5.0 0.00 0.75 0.66 98 1009.5
20260506152215 50 336 2.0 5.0 0.00 0.75 0.66 99 1009.4
20260506151714 49 90 2.0 6.0 0.00 0.75 0.66 99 1009.3
20260506151438 49 341 3.0 6.0 0.00 0.75 0.66 99 1009.2
20260506150716 49 322 2.0 5.0 0.00 0.75 0.66 99 1009.2
20260506150215 49 16 3.0 8.0 0.00 0.75 0.66 99 1009.1
20260506145705 49 326 3.0 8.0 0.00 0.75 0.66 99 1009.1
20260506145202 49 199 2.0 3.0 0.00 0.75 0.66 99 1009.0
20260506144647 49 32 2.0 4.0 0.00 0.75 0.66 100 1009.0
20260506144147 49 21 2.0 4.0 0.00 0.75 0.66 100 1009.0
20260506143648 49 314 2.0 4.0 0.00 0.75 0.66 100 1008.9
20260506143148 49 299 2.0 6.0 0.00 0.75 0.66 99 1008.8
20260506142648 48 19 2.0 6.0 0.00 0.75 0.66 100 1008.7
20260506142147 48 23 3.0 6.0 0.00 0.75 0.66 99 1008.7
20260506141648 48 333 3.0 6.0 0.00 0.75 0.66 99 1008.5
20260506141401 48 263 3.0 6.0 0.00 0.75 0.66 99 1008.4
20260506140630 48 315 4.0 6.0 0.00 0.75 0.66 99 1008.3
20260506140129 48 282 4.0 7.0 0.00 0.75 0.66 100 1008.3
20260506135629 48 330 4.0 9.0 0.00 0.75 0.66 100 1008.3
20260506135130 48 341 5.0 11.0 0.00 0.75 0.66 100 1008.3
20260506134629 48 291 5.0 11.0 0.00 0.75 0.66 100 1008.2
20260506133630 49 324 4.0 11.0 0.00 0.75 0.66 99 1007.9
20260506133129 49 334 5.0 11.0 0.00 0.75 0.66 99 1008.0
20260506132854 49 0 5.0 11.0 0.00 0.75 0.66 99 1008.1
20260506132130 49 319 6.0 11.0 0.00 0.75 0.66 99 1007.9
20260506131629 50 331 4.0 8.0 0.00 0.75 0.66 99 1007.5
20260506131123 50 337 4.0 9.0 0.00 0.75 0.66 99 1007.2
20260506130624 50 321 4.0 9.0 0.00 0.75 0.66 99 1007.2
20260506130124 51 318 4.0 8.0 0.00 0.75 0.66 99 1007.2
20260506125624 51 298 4.0 7.0 0.00 0.75 0.66 99 1007.0
20260506125125 52 309 4.0 8.0 0.01 0.75 0.66 99 1006.9
20260506124624 53 262 4.0 8.0 0.01 0.75 0.66 99 1006.9
20260506124118 54 302 4.0 6.0 0.01 0.75 0.66 99 1006.7
20260506123617 56 303 3.0 6.0 0.02 0.75 0.66 99 1006.5
20260506123112 56 290 4.0 7.0 0.04 0.75 0.66 99 1006.4
20260506122613 56 258 4.0 7.0 0.04 0.75 0.66 99 1006.4
20260506122112 56 240 4.0 7.0 0.04 0.75 0.65 99 1006.4
20260506121613 56 223 4.0 8.0 0.04 0.75 0.65 99 1006.5
20260506121107 56 245 4.0 8.0 0.04 0.75 0.65 99 1006.5
20260506120826 56 205 3.0 7.0 0.04 0.75 0.65 99 1006.4
20260506120104 56 135 3.0 5.0 0.04 0.75 0.65 99 1006.5
20260506115816 56 203 4.0 7.0 0.04 0.75 0.65 99 1006.5
20260506115049 56 207 4.0 8.0 0.04 0.75 0.65 99 1006.5
20260506114549 56 246 4.0 8.0 0.04 0.75 0.65 99 1006.5
20260506114049 56 162 4.0 7.0 0.03 0.75 0.65 99 1006.3
20260506113813 56 200 4.0 7.0 0.02 0.73 0.63 99 1006.3
20260506113313 56 233 4.0 7.0 0.01 0.72 0.62 99 1006.3
20260506112549 56 267 4.0 6.0 0.00 0.72 0.61 99 1006.4
20260506112050 56 222 4.0 7.0 0.00 0.72 0.61 99 1006.3
20260506111550 56 241 4.0 7.0 0.00 0.72 0.61 99 1006.2
20260506111049 56 198 4.0 7.0 0.00 0.72 0.61 99 1006.2
20260506110544 56 222 4.0 8.0 0.00 0.72 0.61 99 1006.0
20260506110044 56 205 4.0 8.0 0.00 0.72 0.61 99 1006.0
20260506105538 56 259 5.0 8.0 0.01 0.72 0.61 99 1005.8
20260506105038 56 232 5.0 9.0 0.03 0.72 0.61 99 1005.8
20260506104538 56 218 5.0 9.0 0.04 0.72 0.61 99 1005.9
20260506104038 56 219 5.0 9.0 0.04 0.72 0.61 99 1005.7
20260506103539 56 225 4.0 11.0 0.04 0.72 0.61 99 1005.7
20260506103038 56 169 4.0 11.0 0.05 0.72 0.61 99 1005.6
20260506102538 56 220 5.0 11.0 0.05 0.72 0.61 99 1005.6
20260506101533 56 220 5.0 9.0 0.07 0.72 0.61 99 1005.9
20260506101032 56 225 5.0 9.0 0.07 0.72 0.61 99 1006.0
20260506100533 56 160 5.0 9.0 0.07 0.71 0.61 99 1006.0
20260506100033 56 205 4.0 9.0 0.08 0.71 0.61 99 1006.0
20260506095534 56 218 4.0 11.0 0.08 0.70 0.60 99 1006.0
20260506095033 56 209 5.0 11.0 0.07 0.69 0.59 99 1006.1
20260506094533 56 208 5.0 9.0 0.06 0.68 0.58 99 1006.1
20260506094033 56 200 5.0 9.0 0.06 0.68 0.57 99 1006.0
20260506093800 55 209 4.0 8.0 0.05 0.67 0.57 99 1006.1
20260506093034 55 220 4.0 9.0 0.06 0.67 0.57 99 1006.1
20260506092533 55 243 4.0 9.0 0.06 0.67 0.56 99 1006.1
20260506092034 55 143 4.0 10.0 0.06 0.66 0.56 99 1006.1
20260506091534 55 205 4.0 10.0 0.06 0.65 0.55 99 1006.1
20260506091028 55 190 5.0 9.0 0.07 0.64 0.54 99 1006.1
20260506090749 56 196 4.0 9.0 0.08 0.64 0.54 99 1006.0
20260506090028 56 167 4.0 8.0 0.09 0.63 0.53 99 1006.0
20260506085754 56 188 4.0 8.0 0.10 0.63 0.52 99 1006.1
20260506085028 56 203 4.0 10.0 0.13 0.62 0.52 100 1006.2
20260506084748 56 212 4.0 10.0 0.16 0.62 0.52 100 1006.2
20260506084028 56 202 4.0 6.0 0.17 0.63 0.52 100 1006.2
20260506083529 56 231 4.0 6.0 0.18 0.63 0.52 99 1006.2
20260506083028 56 151 4.0 6.0 0.20 0.61 0.51 99 1006.2
20260506082528 56 201 4.0 8.0 0.20 0.61 0.50 99 1006.3
20260506082029 56 199 5.0 8.0 0.21 0.61 0.50 99 1006.4
20260506081523 56 163 4.0 8.0 0.20 0.59 0.49 99 1006.4
20260506081023 56 197 4.0 9.0 0.19 0.58 0.47 98 1006.4
20260506080247 56 220 4.0 9.0 0.17 0.55 0.44 98 1006.4
20260506073524 56 206 4.0 9.0 0.13 0.44 0.34 95 1006.5
20260506073024 56 203 3.0 6.0 0.10 0.41 0.31 96 1006.5
20260506072741 56 156 2.0 4.0 0.09 0.40 0.30 96 1006.2
20260506072024 56 214 3.0 4.0 0.08 0.39 0.29 96 1006.7
20260506071522 56 240 3.0 4.0 0.07 0.39 0.28 95 1006.6
20260506071008 56 216 2.0 4.0 0.08 0.39 0.28 94 1006.4
20260506070728 56 207 2.0 4.0 0.07 0.39 0.28 96 1006.2
20260506061955 56 80 1.0 2.0 0.18 0.33 0.21 98 1006.5
20260506061455 56 136 0.0 2.0 0.19 0.33 0.21 98 1006.6
20260506060955 56 106 0.0 2.0 0.19 0.34 0.20 98 1006.7
20260506060439 56 135 0.0 2.0 0.19 0.35 0.20 97 1006.9
20260506050936 56 266 2.0 4.0 0.02 0.22 0.02 95 1008.1
20260506050435 56 261 2.0 3.0 0.02 0.22 0.02 98 1008.2
20260506044431 56 223 0.0 2.0 0.02 0.21 0.01 98 1008.1
20260506043930 56 224 0.0 2.0 0.03 0.21 0.01 97 1008.1
20260506043430 56 0 0.0 2.0 0.03 0.20 0.01 97 1008.0
20260506042930 56 0 0.0 2.0 0.04 0.20 0.01 96 1007.9
20260506042430 56 0 1.0 2.0 0.05 0.20 0.01 96 1007.9
20260506041930 56 48 1.0 2.0 0.06 0.20 0.00 94 1007.8
20260506041428 57 53 0.0 2.0 0.07 0.20 0.00 92 1007.8
20260506040927 57 0 0.0 2.0 0.07 0.20 0.00 89 1007.9
20260506040649 57 0 1.0 4.0 0.08 0.20 0.00 89 1008.0
20260506035926 57 279 2.0 4.0 0.07 0.20 0.20 89 1008.2
20260506035426 58 250 2.0 7.0 0.08 0.19 0.19 87 1008.3
20260506034926 58 0 3.0 7.0 0.07 0.19 0.19 86 1008.2
20260506034651 58 222 3.0 7.0 0.07 0.18 0.18 85 1008.4
20260506033926 59 237 3.0 7.0 0.06 0.18 0.18 83 1008.4
20260506033426 60 282 4.0 7.0 0.06 0.18 0.18 81 1008.4
20260506032927 61 218 5.0 11.0 0.06 0.17 0.17 78 1008.4
20260506032651 62 224 5.0 11.0 0.04 0.16 0.16 74 1008.4
20260506032155 62 235 6.0 11.0 0.03 0.14 0.14 72 1008.4
20260506031426 63 241 5.0 11.0 0.02 0.13 0.13 68 1008.4
20260506030926 64 256 6.0 14.0 0.01 0.13 0.13 67 1008.4
20260506030426 64 246 8.0 21.0 0.01 0.12 0.12 65 1008.4
20260506025925 65 259 9.0 21.0 0.01 0.12 0.12 63 1008.4
20260506025426 66 278 6.0 21.0 0.00 0.11 0.11 61 1008.3
20260506025148 66 265 4.0 8.0 0.00 0.11 0.11 61 1008.3
20260506024426 66 198 4.0 8.0 0.00 0.11 0.11 61 1008.2
20260506023926 66 219 3.0 7.0 0.00 0.11 0.11 61 1008.2
20260506023427 66 206 3.0 6.0 0.00 0.11 0.11 62 1008.1
20260506022927 66 202 3.0 7.0 0.00 0.11 0.11 62 1008.1
20260506022423 66 241 4.0 8.0 0.00 0.11 0.11 61 1008.0
20260506021424 67 225 3.0 6.0 0.00 0.11 0.11 61 1008.1
20260506020924 67 139 3.0 6.0 0.00 0.11 0.11 60 1008.0
20260506020424 67 139 3.0 6.0 0.00 0.11 0.11 60 1007.9
20260506015924 67 200 4.0 10.0 0.00 0.11 0.11 59 1008.0
20260506015424 67 200 5.0 10.0 0.00 0.11 0.11 58 1008.0
20260506014925 67 237 5.0 10.0 0.00 0.11 0.11 58 1008.1
20260506014645 67 204 5.0 10.0 0.00 0.11 0.11 59 1008.1
20260506014146 67 228 5.0 9.0 0.00 0.11 0.11 59 1007.9
20260506013425 67 239 4.0 9.0 0.00 0.11 0.11 59 1008.0
20260506012925 67 182 4.0 8.0 0.00 0.11 0.11 61 1008.1
20260506012422 67 239 4.0 8.0 0.00 0.11 0.11 60 1008.1
20260506011922 67 234 4.0 8.0 0.00 0.11 0.11 60 1008.0
20260506011422 67 210 3.0 6.0 0.00 0.11 0.11 60 1008.0
20260506010923 67 235 3.0 6.0 0.00 0.11 0.11 60 1007.9
20260506010422 67 194 3.0 7.0 0.00 0.11 0.11 60 1007.8
20260506005922 67 214 3.0 7.0 0.00 0.11 0.11 59 1007.8
20260506005423 67 238 2.0 4.0 0.00 0.11 0.11 60 1007.8
20260506004922 67 244 2.0 4.0 0.00 0.11 0.11 60 1007.7
20260506003922 68 222 3.0 6.0 0.00 0.11 0.11 59 1007.9
20260506003423 68 208 3.0 6.0 0.00 0.11 0.11 59 1008.0
20260506002920 68 207 3.0 6.0 0.00 0.11 0.11 59 1008.0
20260506002421 68 215 3.0 6.0 0.00 0.11 0.11 58 1008.0
20260506001921 68 209 3.0 6.0 0.00 0.11 0.11 58 1008.0
20260506001420 68 211 3.0 6.0 0.00 0.11 0.11 58 1008.0
20260506000921 68 280 4.0 8.0 0.00 0.11 0.11 58 1008.1
20260506000420 68 200 3.0 8.0 0.00 0.12 0.11 57 1008.1
20260505235920 68 205 2.0 4.0 0.00 0.12 0.11 58 1008.1
20260505235420 69 238 3.0 5.0 0.00 0.12 0.11 57 1008.1
20260505235143 69 242 3.0 7.0 0.00 0.12 0.11 57 1008.1
20260505234421 69 225 3.0 8.0 0.00 0.12 0.11 56 1008.0
20260505233918 69 220 4.0 8.0 0.00 0.12 0.11 57 1008.1
20260505233418 69 221 4.0 10.0 0.00 0.12 0.11 56 1008.2
20260505232918 69 220 5.0 10.0 0.00 0.12 0.11 56 1008.1
20260505232418 69 210 4.0 10.0 0.00 0.12 0.11 55 1008.1
20260505231918 70 197 4.0 10.0 0.00 0.12 0.11 55 1008.0
20260505231419 70 227 5.0 11.0 0.00 0.12 0.11 55 1008.1
20260505230918 70 240 5.0 11.0 0.00 0.12 0.11 54 1008.1
20260505230419 70 241 6.0 13.0 0.00 0.12 0.11 54 1008.1
20260505230147 70 233 7.0 15.0 0.00 0.12 0.11 54 1008.1
20260505225418 70 205 6.0 15.0 0.00 0.12 0.11 54 1008.0
20260505224919 70 238 7.0 14.0 0.00 0.12 0.11 54 1008.1
20260505224418 70 291 6.0 14.0 0.00 0.12 0.11 53 1008.0
20260505223916 70 231 5.0 11.0 0.00 0.12 0.11 54 1008.1
20260505223416 71 241 6.0 13.0 0.00 0.12 0.11 53 1008.1
20260505222916 71 224 7.0 13.0 0.00 0.12 0.11 53 1008.1
20260505222416 71 236 7.0 13.0 0.00 0.12 0.11 53 1008.1
20260505221916 71 207 6.0 13.0 0.00 0.12 0.11 52 1008.0